QPF
0.00 0.01 0.00 0.01 0.00 0.00 0.00 0.00 0.00 0.01 0.01 0.01 0.01 0.01 0.01 0.01 0.01 0.00 0.00 0.00 0.00 0.01 0.01 0.01 0.01 0.01 0.01 0.01 0.02 0.02 0.02 0.02 0.01 0.02 0.02 0.02 0.02 0.02 0.02 0.01 0.01 0.01 0.01 0.01
0.00 0.00 0.00 0.00 0.00 0.00 0.00 0.00 0.00 0.00 0.01 0.01 0.01 0.01 0.01 0.00 0.00 0.00 0.00 0.00 0.00 0.00 0.00 0.00 0.00 0.00 0.00 0.00 0.00 0.00 0.00 0.00 0.01 0.01 0.01 0.01 0.01 0.01 0.01 0.00 0.00 0.00 0.00 0.01
0.00 0.00 0.00 0.00 0.00 0.00 0.00 0.00 0.00 0.00 0.00 0.00 0.00 0.01 0.00 0.00 0.00 0.00 0.00 0.00 0.00 0.00 0.00 0.00 0.00 0.00 0.00 0.00 0.00 0.00 0.00 0.00 0.00 0.00 0.00 0.00 0.00 0.00 0.00 0.00 0.00 0.00 0.00 0.00
0.00 0.00 0.00 0.00 0.00 0.00 0.00 0.00 0.00 0.00 0.00 0.00 0.00 0.00 0.00 0.00 0.00 0.00 0.00 0.00 0.00 0.00 0.00 0.00 0.00 0.00 0.00 0.00 0.00 0.00 0.00 0.00 0.00 0.00 0.00 0.00 0.00 0.00 0.00 0.00 0.00 0.00 0.00 0.00
0.00 0.00 0.00 0.00 0.00 0.00 0.00 0.00 0.00 0.00 0.00 0.00 0.00 0.00 0.00 0.00 0.00 0.00 0.00 0.00 0.00 0.00 0.00 0.00 0.00 0.00 0.00 0.00 0.00 0.00 0.00 0.00 0.00 0.00 0.00 0.00 0.00 0.00 0.00 0.00 0.00 0.00 0.00 0.00
0.00 0.00 0.00 0.00 0.00 0.00 0.00 0.00 0.00 0.00 0.00 0.00 0.00 0.00 0.00 0.00 0.00 0.00 0.00 0.00 0.00 0.00 0.00 0.00 0.00 0.00 0.00 0.00 0.00 0.00 0.00 0.00 0.00 0.00 0.00 0.00 0.00 0.00 0.00 0.00 0.00 0.00 0.00 0.00
0.00 0.00 0.00 0.00 0.00 0.00 0.00 0.00 0.00 0.00 0.00 0.00 0.00 0.00 0.00 0.00 0.00 0.00 0.00 0.00 0.00 0.00 0.00 0.00 0.00 0.00 0.00 0.00 0.00 0.00 0.00 0.00 0.00 0.00 0.00 0.00 0.00 0.00 0.00 0.00 0.00 0.00 0.00 0.00
0.00 0.00 0.00 0.00 0.00 0.00 0.00 0.00 0.00 0.00 0.00 0.00 0.00 0.00 0.00 0.00 0.00 0.00 0.00 0.00 0.00 0.00 0.00 0.00 0.00 0.00 0.00 0.00 0.00 0.00 0.00 0.00 0.00 0.00 0.00 0.00 0.00 0.00 0.00 0.00 0.00 0.00 0.00 0.00
0.00 0.00 0.00 0.00 0.00 0.00 0.00 0.00 0.00 0.00 0.00 0.00 0.00 0.00 0.00 0.00 0.00 0.00 0.00 0.00 0.00 0.00 0.00 0.00 0.00 0.00 0.00 0.00 0.00 0.00 0.00 0.00 0.00 0.00 0.00 0.00 0.00 0.00 0.00 0.00 0.00 0.00 0.00 0.00
0.00 0.00 0.00 0.00 0.00 0.00 0.00 0.00 0.00 0.00 0.00 0.00 0.00 0.00 0.00 0.00 0.00 0.00 0.00 0.00 0.00 0.00 0.00 0.00 0.00 0.00 0.00 0.00 0.00 0.00 0.00 0.00 0.00 0.00 0.00 0.00 0.00 0.00 0.00 0.00 0.00 0.00 0.00 0.00
0.00 0.00 0.00 0.00 0.00 0.00 0.00 0.00 0.00 0.00 0.00 0.00 0.00 0.00 0.00 0.00 0.00 0.00 0.00 0.00 0.00 0.00 0.00 0.00 0.00 0.00 0.00 0.00 0.00 0.00 0.00 0.00 0.00 0.00 0.00 0.00 0.00 0.00 0.00 0.00 0.00 0.00 0.00 0.00
0.00 0.00 0.00 0.00 0.00 0.00 0.00 0.00 0.00 0.00 0.00 0.00 0.00 0.00 0.00 0.00 0.00 0.00 0.00 0.00 0.00 0.00 0.00 0.00 0.00 0.00 0.00 0.00 0.00 0.00 0.00 0.00 0.00 0.00 0.00 0.00 0.00 0.00 0.00 0.00 0.00 0.00 0.00 0.00
0.00 0.00 0.00 0.00 0.00 0.00 0.00 0.00 0.00 0.00 0.00 0.00 0.00 0.00 0.00 0.00 0.00 0.00 0.00 0.00 0.00 0.00 0.00 0.00 0.00 0.00 0.00 0.00 0.00 0.00 0.00 0.00 0.00 0.00 0.00 0.00 0.00 0.00 0.00 0.00 0.00 0.00 0.00 0.00
0.00 0.00 0.00 0.00 0.00 0.00 0.00 0.00 0.00 0.00 0.00 0.00 0.00 0.00 0.00 0.00 0.00 0.00 0.00 0.00 0.00 0.00 0.00 0.00 0.00 0.00 0.00 0.00 0.00 0.00 0.00 0.00 0.00 0.00 0.00 0.00 0.00 0.00 0.00 0.00 0.00 0.00 0.00 0.00
0.00 0.00 0.00 0.00 0.00 0.00 0.00 0.00 0.00 0.00 0.00 0.00 0.00 0.00 0.00 0.00 0.00 0.00 0.00 0.00 0.00 0.00 0.00 0.00 0.00 0.00 0.00 0.00 0.00 0.00 0.00 0.00 0.00 0.00 0.00 0.00 0.00 0.00 0.00 0.00 0.00 0.00 0.00 0.00
0.00 0.00 0.00 0.00 0.00 0.00 0.00 0.00 0.00 0.00 0.00 0.00 0.00 0.00 0.00 0.00 0.00 0.00 0.00 0.00 0.00 0.00 0.00 0.00 0.00 0.00 0.00 0.00 0.00 0.00 0.00 0.00 0.00 0.00 0.00 0.00 0.00 0.00 0.00 0.00 0.00 0.00 0.00 0.00
0.00 0.00 0.00 0.00 0.00 0.00 0.00 0.00 0.00 0.00 0.00 0.00 0.00 0.00 0.00 0.00 0.00 0.00 0.00 0.00 0.00 0.00 0.00 0.00 0.00 0.00 0.00 0.00 0.00 0.00 0.00 0.00 0.00 0.00 0.00 0.00 0.00 0.00 0.00 0.00 0.00 0.00 0.00 0.00
0.00 0.00 0.00 0.00 0.00 0.00 0.00 0.00 0.00 0.00 0.00 0.00 0.00 0.00 0.00 0.00 0.00 0.00 0.00 0.00 0.00 0.00 0.00 0.00 0.00 0.00 0.00 0.00 0.00 0.00 0.00 0.00 0.00 0.00 0.00 0.00 0.00 0.00 0.00 0.00 0.00 0.00 0.00 0.00
0.00 0.00 0.00 0.00 0.00 0.00 0.00 0.00 0.00 0.00 0.00 0.00 0.00 0.00 0.00 0.00 0.00 0.00 0.00 0.00 0.00 0.00 0.00 0.00 0.00 0.00 0.00 0.00 0.00 0.00 0.00 0.00 0.00 0.00 0.00 0.00 0.00 0.00 0.00 0.00 0.00 0.00 0.00 0.00
0.00 0.00 0.00 0.00 0.00 0.00 0.00 0.00 0.00 0.00 0.00 0.00 0.00 0.00 0.00 0.00 0.00 0.00 0.00 0.00 0.00 0.00 0.00 0.00 0.00 0.00 0.00 0.00 0.00 0.00 0.00 0.00 0.00 0.00 0.00 0.00 0.00 0.00 0.00 0.00 0.00 0.00 0.00 0.00
0.00 0.00 0.00 0.00 0.00 0.00 0.00 0.00 0.00 0.00 0.00 0.00 0.00 0.00 0.00 0.00 0.00 0.00 0.00 0.00 0.00 0.00 0.00 0.00 0.00 0.00 0.00 0.00 0.00 0.00 0.00 0.00 0.00 0.00 0.00 0.00 0.00 0.00 0.00 0.00 0.00 0.00 0.00 0.00
0.00 0.00 0.00 0.00 0.00 0.00 0.00 0.00 0.00 0.00 0.00 0.00 0.00 0.00 0.00 0.00 0.00 0.00 0.00 0.00 0.00 0.00 0.00 0.00 0.00 0.00 0.00 0.00 0.00 0.00 0.00 0.00 0.00 0.00 0.00 0.00 0.00 0.00 0.00 0.00 0.00 0.00 0.00 0.00
0.00 0.00 0.00 0.00 0.00 0.00 0.00 0.00 0.00 0.00 0.00 0.00 0.00 0.00 0.00 0.00 0.00 0.00 0.00 0.00 0.00 0.00 0.00 0.00 0.00 0.00 0.00 0.00 0.00 0.00 0.00 0.00 0.00 0.00 0.00 0.00 0.00 0.00 0.00 0.00 0.00 0.00 0.00 0.01
0.00 0.00 0.00 0.00 0.00 0.00 0.00 0.00 0.00 0.00 0.00 0.00 0.00 0.00 0.00 0.00 0.00 0.00 0.00 0.00 0.00 0.00 0.00 0.00 0.00 0.00 0.00 0.00 0.00 0.00 0.00 0.00 0.00 0.00 0.00 0.00 0.00 0.00 0.00 0.00 0.00 0.00 0.00 0.01
0.00 0.00 0.00 0.00 0.00 0.00 0.00 0.00 0.00 0.00 0.00 0.00 0.00 0.00 0.00 0.00 0.00 0.00 0.00 0.00 0.00 0.00 0.00 0.00 0.00 0.00 0.00 0.00 0.00 0.00 0.00 0.00 0.00 0.00 0.00 0.00 0.00 0.00 0.00 0.00 0.01 0.01 0.01 0.01
0.00 0.00 0.00 0.00 0.00 0.00 0.00 0.00 0.00 0.00 0.00 0.00 0.00 0.00 0.00 0.00 0.00 0.00 0.00 0.00 0.00 0.00 0.00 0.00 0.00 0.00 0.00 0.00 0.00 0.00 0.00 0.00 0.00 0.00 0.00 0.00 0.00 0.00 0.00 0.00 0.00 0.01 0.01 0.01
0.00 0.00 0.00 0.00 0.00 0.00 0.00 0.00 0.00 0.00 0.00 0.00 0.00 0.00 0.00 0.00 0.00 0.00 0.00 0.00 0.00 0.00 0.00 0.00 0.00 0.00 0.00 0.00 0.00 0.00 0.00 0.00 0.00 0.00 0.00 0.00 0.00 0.00 0.00 0.00 0.00 0.01 0.01 0.01
MSLP
1016.55 1016.54 1016.49 1016.41 1016.28 1016.09 1015.84 1015.56 1015.24 1014.91 1014.62 1014.39 1014.25 1014.24 1014.36 1014.62 1014.99 1015.46 1015.99 1016.55 1017.09 1017.60 1018.04 1018.42 1018.73 1018.98 1019.19 1019.35 1019.49 1019.61 1019.70 1019.76 1019.80 1019.80 1019.76 1019.68 1019.56 1019.40 1019.19 1018.96 1018.68 1018.37 1018.03 1017.64
1016.43 1016.28 1016.10 1015.89 1015.64 1015.37 1015.07 1014.76 1014.44 1014.13 1013.85 1013.63 1013.49 1013.45 1013.53 1013.72 1014.01 1014.40 1014.86 1015.37 1015.90 1016.42 1016.93 1017.40 1017.83 1018.22 1018.56 1018.86 1019.12 1019.33 1019.51 1019.63 1019.71 1019.74 1019.72 1019.66 1019.55 1019.40 1019.21 1018.99 1018.73 1018.43 1018.09 1017.72
1016.34 1016.07 1015.75 1015.41 1015.06 1014.70 1014.35 1014.01 1013.69 1013.40 1013.14 1012.94 1012.80 1012.75 1012.78 1012.90 1013.12 1013.42 1013.81 1014.26 1014.77 1015.30 1015.86 1016.41 1016.95 1017.46 1017.94 1018.36 1018.74 1019.05 1019.30 1019.49 1019.60 1019.66 1019.65 1019.59 1019.49 1019.35 1019.16 1018.95 1018.70 1018.41 1018.08 1017.70
1016.24 1015.86 1015.43 1014.98 1014.53 1014.11 1013.71 1013.36 1013.04 1012.78 1012.55 1012.38 1012.25 1012.19 1012.18 1012.25 1012.40 1012.64 1012.95 1013.35 1013.82 1014.36 1014.95 1015.56 1016.19 1016.80 1017.39 1017.92 1018.40 1018.79 1019.10 1019.33 1019.47 1019.53 1019.53 1019.47 1019.36 1019.21 1019.02 1018.80 1018.55 1018.26 1017.93 1017.56
1016.08 1015.62 1015.11 1014.59 1014.08 1013.61 1013.20 1012.85 1012.56 1012.32 1012.14 1012.00 1011.89 1011.83 1011.81 1011.84 1011.94 1012.11 1012.37 1012.72 1013.16 1013.69 1014.29 1014.94 1015.63 1016.31 1016.97 1017.58 1018.12 1018.56 1018.91 1019.16 1019.31 1019.37 1019.35 1019.28 1019.15 1018.98 1018.78 1018.55 1018.29 1018.00 1017.67 1017.30
1015.80 1015.30 1014.76 1014.22 1013.70 1013.23 1012.83 1012.51 1012.26 1012.07 1011.92 1011.82 1011.75 1011.70 1011.67 1011.68 1011.75 1011.88 1012.09 1012.40 1012.81 1013.32 1013.92 1014.59 1015.30 1016.01 1016.71 1017.35 1017.91 1018.37 1018.73 1018.97 1019.11 1019.16 1019.12 1019.03 1018.88 1018.69 1018.48 1018.23 1017.96 1017.66 1017.33 1016.96
1015.41 1014.91 1014.39 1013.87 1013.38 1012.96 1012.61 1012.34 1012.14 1012.00 1011.91 1011.85 1011.81 1011.77 1011.75 1011.76 1011.80 1011.91 1012.09 1012.37 1012.76 1013.24 1013.82 1014.48 1015.17 1015.88 1016.57 1017.21 1017.76 1018.21 1018.55 1018.77 1018.89 1018.92 1018.86 1018.74 1018.57 1018.37 1018.14 1017.88 1017.60 1017.30 1016.96 1016.58
1014.91 1014.45 1013.99 1013.53 1013.13 1012.79 1012.52 1012.32 1012.19 1012.12 1012.07 1012.04 1012.03 1012.01 1011.99 1012.00 1012.03 1012.12 1012.29 1012.55 1012.91 1013.37 1013.92 1014.54 1015.20 1015.87 1016.52 1017.12 1017.63 1018.04 1018.35 1018.55 1018.64 1018.65 1018.58 1018.45 1018.27 1018.06 1017.82 1017.56 1017.27 1016.95 1016.61 1016.23
1014.35 1013.96 1013.58 1013.23 1012.94 1012.71 1012.54 1012.43 1012.38 1012.35 1012.34 1012.34 1012.34 1012.33 1012.31 1012.32 1012.35 1012.43 1012.59 1012.83 1013.16 1013.59 1014.10 1014.67 1015.28 1015.90 1016.49 1017.03 1017.49 1017.86 1018.13 1018.30 1018.38 1018.38 1018.31 1018.18 1018.00 1017.79 1017.55 1017.28 1016.99 1016.66 1016.31 1015.92
1013.79 1013.48 1013.20 1012.99 1012.82 1012.72 1012.66 1012.64 1012.64 1012.66 1012.67 1012.68 1012.67 1012.65 1012.63 1012.62 1012.65 1012.72 1012.87 1013.09 1013.41 1013.80 1014.27 1014.79 1015.33 1015.88 1016.41 1016.89 1017.30 1017.63 1017.88 1018.04 1018.11 1018.12 1018.06 1017.94 1017.78 1017.58 1017.35 1017.08 1016.77 1016.43 1016.06 1015.64
1013.29 1013.06 1012.91 1012.82 1012.79 1012.80 1012.85 1012.90 1012.95 1012.99 1013.01 1013.00 1012.96 1012.92 1012.88 1012.85 1012.86 1012.93 1013.06 1013.27 1013.56 1013.92 1014.34 1014.80 1015.29 1015.78 1016.25 1016.68 1017.05 1017.35 1017.59 1017.75 1017.84 1017.87 1017.84 1017.75 1017.61 1017.43 1017.20 1016.92 1016.60 1016.24 1015.84 1015.40
1012.91 1012.77 1012.73 1012.77 1012.86 1012.98 1013.10 1013.21 1013.28 1013.32 1013.31 1013.27 1013.19 1013.10 1013.02 1012.97 1012.96 1013.00 1013.12 1013.31 1013.57 1013.90 1014.28 1014.70 1015.14 1015.57 1016.00 1016.39 1016.74 1017.04 1017.28 1017.46 1017.59 1017.65 1017.66 1017.60 1017.48 1017.31 1017.08 1016.79 1016.45 1016.06 1015.63 1015.15
1012.70 1012.65 1012.71 1012.85 1013.04 1013.24 1013.41 1013.55 1013.62 1013.63 1013.58 1013.48 1013.34 1013.20 1013.08 1012.99 1012.95 1012.97 1013.07 1013.24 1013.47 1013.77 1014.12 1014.49 1014.89 1015.29 1015.68 1016.05 1016.40 1016.70 1016.97 1017.19 1017.35 1017.46 1017.50 1017.47 1017.37 1017.20 1016.96 1016.66 1016.29 1015.87 1015.39 1014.88
1012.67 1012.70 1012.85 1013.08 1013.33 1013.58 1013.78 1013.90 1013.95 1013.91 1013.80 1013.64 1013.45 1013.25 1013.08 1012.95 1012.88 1012.88 1012.95 1013.10 1013.31 1013.58 1013.89 1014.24 1014.60 1014.97 1015.35 1015.71 1016.06 1016.39 1016.68 1016.93 1017.14 1017.28 1017.35 1017.34 1017.26 1017.08 1016.83 1016.50 1016.10 1015.64 1015.14 1014.60
1012.80 1012.92 1013.14 1013.42 1013.71 1013.97 1014.16 1014.26 1014.27 1014.17 1014.00 1013.77 1013.52 1013.27 1013.06 1012.89 1012.80 1012.78 1012.84 1012.96 1013.16 1013.40 1013.68 1014.00 1014.33 1014.68 1015.04 1015.40 1015.76 1016.11 1016.43 1016.71 1016.94 1017.11 1017.20 1017.21 1017.12 1016.93 1016.66 1016.30 1015.88 1015.40 1014.87 1014.32
1013.07 1013.25 1013.52 1013.83 1014.14 1014.38 1014.54 1014.60 1014.54 1014.39 1014.16 1013.88 1013.58 1013.29 1013.05 1012.87 1012.76 1012.72 1012.77 1012.88 1013.05 1013.27 1013.52 1013.81 1014.12 1014.45 1014.80 1015.16 1015.52 1015.88 1016.21 1016.51 1016.76 1016.95 1017.04 1017.05 1016.95 1016.75 1016.46 1016.09 1015.65 1015.15 1014.63 1014.08
1013.40 1013.63 1013.94 1014.25 1014.54 1014.75 1014.86 1014.86 1014.74 1014.53 1014.25 1013.93 1013.60 1013.30 1013.05 1012.86 1012.75 1012.72 1012.76 1012.86 1013.02 1013.21 1013.45 1013.71 1013.99 1014.30 1014.63 1014.98 1015.34 1015.69 1016.03 1016.34 1016.59 1016.77 1016.87 1016.86 1016.76 1016.55 1016.25 1015.87 1015.43 1014.94 1014.43 1013.90
1013.73 1014.00 1014.31 1014.61 1014.85 1015.00 1015.05 1014.98 1014.81 1014.55 1014.23 1013.89 1013.56 1013.26 1013.02 1012.85 1012.76 1012.74 1012.79 1012.89 1013.04 1013.22 1013.43 1013.66 1013.93 1014.21 1014.52 1014.85 1015.20 1015.54 1015.87 1016.17 1016.41 1016.59 1016.67 1016.66 1016.55 1016.34 1016.04 1015.68 1015.25 1014.79 1014.31 1013.81
1013.98 1014.26 1014.55 1014.81 1014.99 1015.08 1015.05 1014.92 1014.69 1014.40 1014.06 1013.72 1013.40 1013.12 1012.92 1012.78 1012.72 1012.73 1012.79 1012.90 1013.05 1013.22 1013.42 1013.64 1013.88 1014.15 1014.44 1014.75 1015.08 1015.40 1015.72 1016.00 1016.23 1016.39 1016.47 1016.45 1016.34 1016.14 1015.86 1015.52 1015.13 1014.71 1014.26 1013.80
1014.11 1014.37 1014.62 1014.81 1014.91 1014.92 1014.82 1014.62 1014.35 1014.03 1013.69 1013.37 1013.08 1012.85 1012.69 1012.60 1012.58 1012.62 1012.71 1012.84 1012.99 1013.17 1013.36 1013.57 1013.81 1014.06 1014.34 1014.64 1014.95 1015.26 1015.56 1015.83 1016.04 1016.19 1016.26 1016.25 1016.15 1015.97 1015.72 1015.41 1015.06 1014.68 1014.27 1013.84
1014.07 1014.29 1014.47 1014.58 1014.60 1014.52 1014.35 1014.10 1013.80 1013.46 1013.13 1012.83 1012.59 1012.41 1012.30 1012.26 1012.29 1012.37 1012.50 1012.65 1012.82 1013.01 1013.21 1013.43 1013.66 1013.92 1014.19 1014.49 1014.80 1015.10 1015.39 1015.65 1015.86 1016.00 1016.08 1016.07 1015.98 1015.82 1015.60 1015.33 1015.02 1014.68 1014.30 1013.88
1013.85 1014.02 1014.12 1014.15 1014.08 1013.92 1013.68 1013.39 1013.06 1012.72 1012.41 1012.15 1011.95 1011.82 1011.77 1011.78 1011.86 1011.99 1012.15 1012.33 1012.53 1012.74 1012.96 1013.19 1013.44 1013.71 1014.00 1014.31 1014.62 1014.93 1015.22 1015.48 1015.69 1015.83 1015.91 1015.91 1015.84 1015.70 1015.51 1015.27 1014.99 1014.66 1014.29 1013.87
1013.49 1013.58 1013.60 1013.54 1013.39 1013.16 1012.87 1012.54 1012.20 1011.88 1011.59 1011.36 1011.21 1011.14 1011.14 1011.20 1011.33 1011.49 1011.68 1011.90 1012.12 1012.36 1012.61 1012.88 1013.16 1013.46 1013.77 1014.10 1014.44 1014.76 1015.06 1015.33 1015.54 1015.69 1015.77 1015.78 1015.72 1015.59 1015.41 1015.19 1014.91 1014.59 1014.22 1013.78
1012.99 1013.01 1012.96 1012.81 1012.59 1012.31 1011.98 1011.64 1011.30 1011.00 1010.75 1010.57 1010.47 1010.44 1010.49 1010.60 1010.76 1010.95 1011.17 1011.42 1011.67 1011.95 1012.23 1012.53 1012.85 1013.19 1013.55 1013.91 1014.27 1014.62 1014.93 1015.20 1015.42 1015.57 1015.65 1015.65 1015.59 1015.46 1015.28 1015.05 1014.77 1014.43 1014.04 1013.57
1012.39 1012.34 1012.22 1012.02 1011.75 1011.43 1011.10 1010.76 1010.45 1010.18 1009.98 1009.84 1009.79 1009.81 1009.89 1010.04 1010.22 1010.45 1010.69 1010.96 1011.25 1011.56 1011.88 1012.22 1012.58 1012.96 1013.36 1013.76 1014.14 1014.51 1014.84 1015.11 1015.32 1015.46 1015.53 1015.51 1015.43 1015.29 1015.08 1014.83 1014.53 1014.17 1013.74 1013.24
1011.71 1011.60 1011.43 1011.19 1010.90 1010.58 1010.25 1009.95 1009.68 1009.46 1009.31 1009.23 1009.22 1009.28 1009.41 1009.58 1009.79 1010.04 1010.31 1010.60 1010.92 1011.25 1011.61 1011.99 1012.39 1012.81 1013.24 1013.66 1014.07 1014.44 1014.77 1015.04 1015.23 1015.35 1015.38 1015.33 1015.22 1015.04 1014.80 1014.51 1014.17 1013.78 1013.33 1012.80
1010.95 1010.81 1010.60 1010.34 1010.06 1009.76 1009.47 1009.21 1009.00 1008.85 1008.76 1008.74 1008.79 1008.89 1009.05 1009.25 1009.49 1009.76 1010.05 1010.37 1010.71 1011.07 1011.46 1011.87 1012.30 1012.75 1013.20 1013.64 1014.05 1014.42 1014.73 1014.96 1015.12 1015.20 1015.18 1015.09 1014.92 1014.69 1014.41 1014.08 1013.70 1013.28 1012.81 1012.28
Thickness
5540 5547 5548 5547 5548 5549 5543 5542 5540 5551 5554 5557 5555 5552 5550 5546 5542 5538 5534 5530 5525 5519 5514 5509 5505 5502 5498 5495 5492 5490 5487 5485 5484 5483 5483 5483 5483 5483 5483 5483 5483 5482 5481 5480
5537 5550 5552 5551 5555 5554 5552 5552 5551 5552 5554 5561 5560 5557 5552 5548 5545 5541 5537 5533 5527 5521 5515 5509 5505 5501 5497 5493 5489 5486 5483 5481 5480 5478 5477 5477 5476 5475 5475 5474 5473 5472 5470 5468
5537 5553 5552 5551 5566 5563 5560 5562 5559 5555 5560 5560 5557 5556 5553 5549 5546 5541 5537 5533 5527 5521 5515 5509 5504 5500 5494 5490 5486 5483 5479 5477 5475 5473 5472 5470 5469 5467 5466 5464 5462 5460 5458 5457
5533 5542 5540 5568 5576 5575 5570 5568 5566 5565 5563 5560 5559 5556 5554 5552 5546 5542 5538 5533 5527 5520 5514 5508 5503 5498 5492 5488 5483 5479 5475 5472 5470 5467 5465 5463 5461 5458 5456 5454 5451 5449 5446 5444
5532 5536 5553 5571 5571 5569 5565 5565 5570 5567 5564 5561 5558 5552 5549 5551 5548 5542 5537 5531 5524 5518 5512 5505 5500 5494 5489 5483 5479 5474 5470 5467 5464 5461 5458 5455 5452 5449 5446 5443 5440 5437 5435 5432
5530 5535 5547 5570 5567 5567 5562 5557 5569 5568 5563 5558 5552 5539 5544 5548 5545 5539 5534 5527 5521 5514 5508 5501 5496 5490 5484 5478 5473 5469 5465 5462 5458 5454 5450 5447 5443 5440 5436 5433 5430 5427 5424 5420
5520 5528 5550 5567 5563 5560 5550 5559 5564 5563 5560 5554 5547 5544 5545 5543 5539 5534 5529 5523 5516 5510 5502 5496 5491 5485 5478 5473 5468 5465 5460 5456 5452 5447 5443 5439 5434 5430 5427 5423 5420 5416 5413 5409
5528 5528 5544 5561 5556 5553 5557 5561 5560 5558 5555 5551 5546 5543 5541 5537 5532 5527 5521 5517 5511 5503 5497 5491 5486 5479 5472 5467 5463 5459 5454 5449 5444 5439 5435 5431 5425 5421 5417 5412 5408 5404 5400 5395
5546 5552 5563 5560 5560 5561 5559 5556 5555 5551 5550 5546 5541 5536 5534 5530 5525 5521 5516 5510 5505 5498 5491 5485 5480 5474 5467 5462 5457 5451 5446 5440 5435 5431 5426 5421 5416 5411 5406 5401 5396 5391 5386 5382
5544 5558 5563 5562 5561 5559 5557 5553 5551 5548 5544 5540 5534 5531 5527 5523 5519 5515 5510 5504 5498 5491 5484 5479 5473 5467 5461 5456 5450 5444 5437 5432 5427 5421 5416 5411 5405 5400 5394 5388 5382 5378 5373 5367
5537 5551 5555 5559 5557 5555 5551 5548 5544 5541 5538 5534 5529 5525 5521 5517 5514 5509 5504 5497 5491 5485 5479 5473 5467 5460 5454 5448 5442 5435 5429 5423 5418 5412 5406 5400 5394 5388 5383 5377 5370 5365 5359 5353
5540 5550 5549 5551 5550 5548 5543 5539 5536 5532 5529 5527 5523 5519 5516 5512 5508 5503 5496 5490 5484 5478 5472 5466 5460 5453 5447 5441 5434 5427 5420 5414 5408 5401 5395 5389 5383 5377 5372 5366 5360 5354 5348 5341
5546 5545 5543 5542 5540 5538 5535 5532 5529 5525 5521 5518 5515 5512 5509 5505 5501 5496 5490 5483 5477 5471 5465 5459 5452 5446 5439 5433 5425 5418 5411 5404 5398 5391 5385 5378 5372 5365 5360 5355 5348 5342 5336 5329
5537 5534 5532 5532 5530 5529 5526 5523 5519 5516 5513 5510 5507 5504 5501 5497 5492 5487 5482 5476 5470 5464 5458 5452 5445 5438 5431 5424 5416 5409 5402 5395 5388 5381 5374 5367 5360 5354 5348 5343 5337 5331 5325 5318
5526 5524 5522 5523 5520 5518 5515 5511 5507 5504 5502 5501 5498 5494 5490 5486 5482 5478 5473 5467 5461 5455 5449 5443 5436 5430 5423 5415 5407 5400 5392 5385 5378 5370 5364 5357 5351 5344 5337 5331 5325 5319 5314 5307
5517 5515 5513 5510 5508 5506 5503 5500 5496 5494 5492 5490 5487 5484 5480 5476 5472 5467 5462 5457 5451 5446 5440 5434 5427 5421 5414 5406 5398 5390 5383 5376 5369 5361 5354 5347 5341 5334 5327 5320 5314 5308 5302 5296
5502 5499 5498 5496 5496 5494 5492 5490 5488 5486 5483 5480 5478 5474 5470 5465 5460 5456 5452 5447 5442 5437 5431 5425 5419 5412 5404 5397 5388 5381 5373 5366 5360 5352 5344 5338 5331 5324 5317 5311 5304 5298 5292 5286
5496 5495 5492 5489 5486 5483 5481 5480 5478 5476 5473 5471 5468 5463 5459 5454 5451 5447 5442 5437 5431 5426 5421 5415 5409 5402 5395 5387 5379 5372 5364 5357 5350 5342 5335 5329 5322 5315 5308 5302 5295 5289 5284 5277
5485 5483 5481 5479 5476 5473 5471 5469 5468 5466 5464 5461 5457 5453 5449 5446 5442 5438 5432 5426 5421 5416 5412 5406 5401 5393 5385 5378 5371 5363 5355 5348 5341 5334 5327 5321 5314 5306 5300 5293 5287 5281 5275 5270
5473 5471 5469 5467 5465 5462 5461 5461 5459 5457 5455 5451 5447 5442 5439 5436 5432 5427 5422 5418 5414 5410 5405 5398 5391 5384 5376 5369 5362 5354 5347 5340 5333 5326 5318 5311 5304 5298 5291 5285 5279 5273 5267 5262
5461 5459 5457 5455 5454 5453 5451 5451 5449 5447 5445 5442 5438 5434 5431 5427 5422 5418 5413 5410 5407 5401 5395 5390 5382 5375 5367 5361 5354 5346 5339 5332 5325 5317 5310 5303 5296 5290 5283 5277 5271 5266 5260 5255
5450 5448 5447 5446 5444 5442 5441 5440 5438 5437 5434 5432 5429 5425 5421 5417 5413 5409 5406 5403 5399 5393 5386 5380 5373 5366 5359 5353 5345 5338 5331 5324 5317 5309 5302 5295 5288 5282 5276 5270 5264 5259 5253 5247
5440 5439 5438 5436 5434 5433 5432 5430 5429 5427 5425 5423 5420 5417 5414 5411 5407 5402 5398 5394 5389 5385 5378 5371 5365 5359 5353 5345 5337 5330 5323 5316 5309 5302 5295 5288 5282 5276 5270 5264 5258 5253 5247 5242
5431 5430 5428 5426 5424 5422 5422 5423 5420 5418 5416 5414 5412 5409 5406 5402 5399 5395 5392 5388 5382 5376 5370 5364 5358 5352 5346 5336 5329 5322 5315 5309 5302 5295 5288 5282 5276 5269 5264 5258 5253 5248 5243 5238
5422 5419 5417 5414 5413 5415 5415 5413 5411 5409 5406 5405 5403 5401 5398 5395 5391 5388 5382 5378 5374 5368 5361 5356 5350 5344 5336 5329 5321 5315 5308 5302 5295 5289 5282 5276 5270 5264 5259 5254 5249 5244 5240 5236
5412 5411 5411 5410 5409 5408 5407 5405 5403 5402 5399 5397 5395 5392 5389 5386 5382 5378 5373 5368 5364 5359 5352 5346 5341 5335 5328 5321 5315 5308 5302 5296 5289 5283 5277 5271 5265 5259 5255 5250 5246 5241 5238 5234
5404 5404 5402 5402 5402 5400 5398 5397 5396 5395 5393 5390 5388 5385 5381 5377 5373 5368 5364 5359 5354 5349 5343 5338 5332 5327 5320 5314 5307 5301 5295 5289 5283 5277 5271 5265 5260 5255 5251 5246 5242 5239 5236 5233